• Em Portugal
  • Lista de países
  • Para 7 dias
  • Temperatura da água
  • Mapas de satélite
  • Mapa do tempo
  • Widgets de tempo
  • user-avatar
    Iniciar Sessão

    Previsão horária em Trypolis

    Hoje, 15 Dezembro, Sexta-feira

    Tempo Temperatura Precipitação Vento Pressão Humidade
    00:00 +17°C° 0,1 mm 3 m/s 761 mmHg 79%
    01:00 +16°C° 0,1 mm 3 m/s 762 mmHg 80%
    02:00 +15°C° 0 mm 4 m/s 761 mmHg 81%
    03:00 +15°C° 0,1 mm 4 m/s 762 mmHg 81%
    04:00 +16°C° 0,1 mm 3 m/s 762 mmHg 81%
    05:00 +16°C° 0,1 mm 3 m/s 762 mmHg 81%
    06:00 +17°C° 0 mm 3 m/s 762 mmHg 77%
    07:00 +17°C° 0 mm 3 m/s 762 mmHg 74%
    08:00 +18°C° 0 mm 3 m/s 762 mmHg 69%
    09:00 +19°C° 0 mm 3 m/s 763 mmHg 64%
    10:00 +20°C° 0 mm 3 m/s 763 mmHg 59%
    11:00 +21°C° 0 mm 3 m/s 763 mmHg 55%
    12:00 +21°C° 0 mm 3 m/s 763 mmHg 55%
    13:00 +21°C° 0 mm 2 m/s 763 mmHg 56%
    14:00 +21°C° 0 mm 2 m/s 763 mmHg 54%
    15:00 +20°C° 0 mm 2 m/s 763 mmHg 60%
    16:00 +20°C° 0 mm 2 m/s 763 mmHg 66%
    17:00 +20°C° 0 mm 1 m/s 763 mmHg 72%
    18:00 +19°C° 0 mm 1 m/s 764 mmHg 74%
    19:00 +19°C° 0 mm 1 m/s 764 mmHg 77%
    20:00 +18°C° 0 mm 1 m/s 764 mmHg 79%
    21:00 +18°C° 0 mm 1 m/s 764 mmHg 79%
    22:00 +18°C° 0 mm 1 m/s 764 mmHg 80%
    23:00 +16°C° 0 mm 1 m/s 765 mmHg 80%

    Amanhã, 16 Dezembro, Sábado

    Tempo Temperatura Precipitação Vento Pressão Humidade
    00:00 +16°C° 0 mm 2 m/s 765 mmHg 79%
    01:00 +16°C° 0 mm 2 m/s 765 mmHg 79%
    02:00 +16°C° 0 mm 2 m/s 765 mmHg 78%
    03:00 +16°C° 0,1 mm 2 m/s 765 mmHg 78%
    04:00 +15°C° 0,1 mm 2 m/s 765 mmHg 78%
    05:00 +15°C° 0,1 mm 2 m/s 765 mmHg 79%
    06:00 +16°C° 0,1 mm 2 m/s 765 mmHg 76%
    07:00 +17°C° 0,1 mm 2 m/s 765 mmHg 74%
    08:00 +18°C° 0,1 mm 2 m/s 765 mmHg 72%
    09:00 +19°C° 0,1 mm 2 m/s 765 mmHg 67%
    10:00 +20°C° 0,1 mm 2 m/s 765 mmHg 63%
    11:00 +21°C° 0,1 mm 2 m/s 765 mmHg 58%
    12:00 +21°C° 0 mm 2 m/s 765 mmHg 58%
    13:00 +21°C° 0 mm 2 m/s 765 mmHg 58%
    14:00 +21°C° 0 mm 2 m/s 764 mmHg 57%
    15:00 +20°C° 0 mm 2 m/s 764 mmHg 63%
    16:00 +20°C° 0 mm 1 m/s 764 mmHg 68%
    17:00 +19°C° 0 mm 1 m/s 764 mmHg 73%
    18:00 +19°C° 0 mm 1 m/s 765 mmHg 74%
    19:00 +19°C° 0 mm 1 m/s 765 mmHg 75%
    20:00 +18°C° 0 mm 1 m/s 765 mmHg 77%
    21:00 +18°C° 0 mm 1 m/s 765 mmHg 76%
    22:00 +18°C° 0 mm 1 m/s 765 mmHg 75%
    23:00 +18°C° 0 mm 1 m/s 765 mmHg 75%

    Depois de amanhã, 17 Dezembro, Domingo

    Tempo Temperatura Precipitação Vento Pressão Humidade
    00:00 +18°C° 0 mm 1 m/s 765 mmHg 74%
    01:00 +18°C° 0 mm 1 m/s 765 mmHg 72%
    02:00 +18°C° 0 mm 1 m/s 765 mmHg 71%
    03:00 +18°C° 0 mm 1 m/s 765 mmHg 71%
    04:00 +17°C° 0 mm 2 m/s 764 mmHg 70%
    05:00 +17°C° 0 mm 2 m/s 764 mmHg 70%
    06:00 +17°C° 0 mm 2 m/s 764 mmHg 65%
    07:00 +18°C° 0 mm 2 m/s 764 mmHg 60%
    08:00 +19°C° 0 mm 2 m/s 765 mmHg 54%
    09:00 +20°C° 0 mm 2 m/s 765 mmHg 48%
    10:00 +23°C° 0 mm 2 m/s 764 mmHg 41%
    11:00 +24°C° 0 mm 2 m/s 764 mmHg 35%
    12:00 +24°C° 0 mm 2 m/s 764 mmHg 34%
    13:00 +25°C° 0 mm 2 m/s 764 mmHg 34%
    14:00 +25°C° 0 mm 2 m/s 763 mmHg 33%
    15:00 +24°C° 0 mm 2 m/s 763 mmHg 37%
    16:00 +23°C° 0 mm 2 m/s 763 mmHg 41%
    17:00 +21°C° 0 mm 2 m/s 763 mmHg 45%
    18:00 +20°C° 0 mm 2 m/s 763 mmHg 45%
    19:00 +20°C° 0 mm 2 m/s 764 mmHg 45%
    20:00 +20°C° 0 mm 2 m/s 764 mmHg 45%
    21:00 +20°C° 0 mm 2 m/s 764 mmHg 44%
    22:00 +20°C° 0 mm 2 m/s 764 mmHg 43%
    23:00 +21°C° 0 mm 1 m/s 764 mmHg 43%

    18 Dezembro, Segunda-feira

    Tempo Temperatura Precipitação Vento Pressão Humidade
    00:00 +21°C° 0 mm 1 m/s 764 mmHg 42%
    01:00 +20°C° 0 mm 1 m/s 764 mmHg 42%
    02:00 +20°C° 0 mm 1 m/s 764 mmHg 42%
    03:00 +20°C° 0 mm 1 m/s 763 mmHg 42%
    04:00 +19°C° 0 mm 2 m/s 763 mmHg 42%
    05:00 +19°C° 0 mm 2 m/s 763 mmHg 42%
    06:00 +20°C° 0 mm 2 m/s 763 mmHg 41%
    07:00 +20°C° 0 mm 2 m/s 764 mmHg 40%
    08:00 +21°C° 0 mm 2 m/s 764 mmHg 40%
    09:00 +23°C° 0 mm 2 m/s 764 mmHg 37%
    10:00 +24°C° 0 mm 2 m/s 764 mmHg 35%
    11:00 +25°C° 0 mm 2 m/s 763 mmHg 33%
    12:00 +25°C° 0 mm 2 m/s 763 mmHg 33%
    13:00 +25°C° 0 mm 2 m/s 763 mmHg 32%
    14:00 +26°C° 0 mm 2 m/s 762 mmHg 32%
    15:00 +25°C° 0 mm 2 m/s 762 mmHg 35%
    16:00 +24°C° 0 mm 2 m/s 762 mmHg 38%
    17:00 +23°C° 0 mm 1 m/s 762 mmHg 42%
    18:00 +22°C° 0 mm 1 m/s 762 mmHg 43%
    19:00 +22°C° 0 mm 1 m/s 762 mmHg 44%
    20:00 +21°C° 0 mm 1 m/s 762 mmHg 45%
    21:00 +20°C° 0 mm 2 m/s 762 mmHg 44%
    22:00 +20°C° 0 mm 2 m/s 762 mmHg 43%
    23:00 +20°C° 0 mm 2 m/s 762 mmHg 41%

    19 Dezembro, Terça-feira

    Tempo Temperatura Precipitação Vento Pressão Humidade
    00:00 +20°C° 0,1 mm 2 m/s 762 mmHg 42%
    01:00 +20°C° 0,1 mm 2 m/s 762 mmHg 44%
    02:00 +20°C° 0,1 mm 2 m/s 762 mmHg 45%
    03:00 +19°C° 0 mm 2 m/s 763 mmHg 47%
    04:00 +19°C° 0 mm 2 m/s 763 mmHg 49%
    05:00 +19°C° 0 mm 2 m/s 763 mmHg 52%
    06:00 +19°C° 0 mm 2 m/s 763 mmHg 52%
    07:00 +20°C° 0 mm 3 m/s 764 mmHg 52%
    08:00 +20°C° 0 mm 3 m/s 764 mmHg 53%
    09:00 +21°C° 0,1 mm 3 m/s 764 mmHg 48%
    10:00 +22°C° 0,1 mm 3 m/s 764 mmHg 44%
    11:00 +24°C° 0,1 mm 3 m/s 764 mmHg 39%
    12:00 +24°C° 0 mm 3 m/s 763 mmHg 40%
    13:00 +24°C° 0 mm 3 m/s 763 mmHg 40%
    14:00 +23°C° 0 mm 4 m/s 762 mmHg 40%
    15:00 +22°C° 0 mm 3 m/s 763 mmHg 46%
    16:00 +21°C° 0 mm 3 m/s 763 mmHg 51%
    17:00 +20°C° 0 mm 2 m/s 763 mmHg 57%
    18:00 +20°C° 0,1 mm 2 m/s 763 mmHg 59%
    19:00 +20°C° 0,1 mm 2 m/s 764 mmHg 60%
    20:00 +21°C° 0,1 mm 1 m/s 764 mmHg 62%
    21:00 +20°C° 0 mm 1 m/s 764 mmHg 60%
    22:00 +20°C° 0 mm 1 m/s 764 mmHg 59%
    23:00 +20°C° 0 mm 1 m/s 763 mmHg 57%

    20 Dezembro, Quarta-feira

    Tempo Temperatura Precipitação Vento Pressão Humidade
    00:00 +20°C° 0 mm 1 m/s 763 mmHg 57%
    01:00 +20°C° 0 mm 1 m/s 763 mmHg 58%
    02:00 +19°C° 0 mm 1 m/s 763 mmHg 59%
    03:00 +19°C° 0 mm 1 m/s 763 mmHg 59%
    04:00 +19°C° 0 mm 1 m/s 763 mmHg 60%
    05:00 +19°C° 0 mm 1 m/s 763 mmHg 61%
    06:00 +19°C° 0 mm 1 m/s 763 mmHg 58%
    07:00 +20°C° 0 mm 1 m/s 764 mmHg 55%
    08:00 +20°C° 0 mm 2 m/s 764 mmHg 53%
    09:00 +21°C° 0 mm 2 m/s 764 mmHg 48%
    10:00 +23°C° 0 mm 2 m/s 763 mmHg 43%
    11:00 +24°C° 0 mm 2 m/s 763 mmHg 39%
    12:00 +24°C° 0 mm 2 m/s 763 mmHg 39%
    13:00 +24°C° 0 mm 3 m/s 763 mmHg 40%
    14:00 +24°C° 0 mm 3 m/s 762 mmHg 40%
    15:00 +23°C° 0 mm 2 m/s 763 mmHg 44%
    16:00 +21°C° 0 mm 2 m/s 763 mmHg 48%
    17:00 +21°C° 0 mm 1 m/s 763 mmHg 52%
    18:00 +21°C° 0 mm 1 m/s 763 mmHg 52%
    19:00 +20°C° 0 mm 1 m/s 763 mmHg 53%
    20:00 +20°C° 0 mm 1 m/s 764 mmHg 53%
    21:00 +20°C° 0 mm 1 m/s 763 mmHg 54%
    22:00 +18°C° 0 mm 2 m/s 763 mmHg 56%
    23:00 +18°C° 0 mm 2 m/s 763 mmHg 57%
    Mostrar mais